Location: De Lemmer
(52.8462°N, 5.7091°E)
Time: 10:01:07
(UTC+00:00)

OBJECT-B - Pass Details

Date: 18 September 2020
Orbit: 421 x 433 km, 97.0° (Epoch: 09 October)

Event Time Altitude Azimuth Distance (km) Brightness Sun altitude
Exits shadow 19:01:25 21° 121° (ESE) 1,024 2.1 -12.2°
Maximum altitude 19:03:03 34° 69° (ENE) 716 1.5 -12.5°
Drops below altitude 10° 19:06:03 10° 3° (N) 1,526 3.8 -12.9°
Sets 19:08:10 0° 354° (N) 2,400 5.0 -13.2°
